749  
NZUS01 KOTX 161625  
RWROTX  
 
EASTERN WASHINGTON/NORTHERN IDAHO ROUNDUP  
NATIONAL WEATHER SERVICE, SPOKANE WA  
900 AM PDT TUE OCT 16 2018  
 
NOTE: "FAIR" INDICATED FEW OR NO CLOUDS BELOW 12,000 FEET WITH NO  
SIGNIFICANT WEATHER AND/OR S TO VISIBILITY
.  
   
..NORTHEAST WASHINGTON AND NORTHERN IDAHO PANHANDLE
 
 
 
CITY SKY/WX TMP DP RH WIND PRES REMARKS
 
SPOKANE INTL MOSUNNY 39 29 67 NE8 30.44R  
SPOKANE DOWNTO SUNNY 38 31 76 CALM 30.47R  
COEUR D ALENE SUNNY 40 32 73 NE7 30.46S  
DEER PARK SUNNY 38 31 76 NW3 30.46R  
SANDPOINT SUNNY 37 32 81 CALM 30.48S  
BONNERS FERRY FAIR 37 32 81 CALM 30.49S  
   
..SOUTHEAST WASHINGTON AND SOUTHERN IDAHO PANHANDLE
 
 
 
CITY SKY/WX TMP DP RH WIND PRES REMARKS
 
WALLA WALLA SUNNY 48 32 53 CALM 30.41S  
PULLMAN/MOSCOW SUNNY 47 27 45 E10 30.44R  
LEWISTON SUNNY 41 30 65 NE3 30.46S  
LOWELL N/A 31 30 96 CALM 30.54F  
GRANGEVILLE FAIR 41 30 65 CALM 30.43S  
   
..COLUMBIA BASIN
 
 
 
CITY SKY/WX TMP DP RH WIND PRES REMARKS
 
EPHRATA SUNNY 45 34 65 NE7 30.44R  
MOSES LAKE SUNNY 38 28 67 N8 30.45R  
PASCO SUNNY 38 32 79 N3 30.46R  
RICHLAND SUNNY 42 38 86 CALM 30.47R  
HERMISTON SUNNY 41 35 79 SE3 30.44R  
PENDLETON SUNNY 42 32 67 SE3 30.41R  
   
..EAST SLOPES CASCADES
 
 
 
CITY SKY/WX TMP DP RH WIND PRES REMARKS
 
THE DALLES SUNNY 41 34 76 CALM 30.45R  
YAKIMA SUNNY 39 32 76 W3 30.44R  
ELLENSBURG SUNNY 40 32 73 CALM 30.44R  
STAMPEDE PASS SUNNY 45 34 65 NE3 30.41R  
WENATCHEE SUNNY 42 34 73 CALM 30.45R  
WINTHROP FAIR 33 30 90 CALM 30.46S  
OMAK SUNNY 42 35 76 NW6 30.47R  
SUNNYSIDE SUNNY 41 35 81 CALM 30.45S  
   
..SOUTHERN BRITISH COLUMBIA
 
 
 
CITY SKY/WX TMP DP RH WIND PRES REMARKS
 
PENTICTON MOSUNNY 43 39 87 N7 30.50S  
CASTLEGAR FOG 32 32 100 VRB2 30.52R VSB 1/4  
CRANBROOK MOSUNNY 34 28 80 VRB2 30.49S  
OSOYOOS N/A 43 39 87 NE1 N/A  
CRESTON N/A 43 36 75 CALM N/A  
   
..WESTERN MONTANA
 
 
 
CITY SKY/WX TMP DP RH WIND PRES REMARKS
 
KALISPELL SUNNY 38 31 76 N3 30.48S  
MISSOULA SUNNY 33 28 81 CALM 30.50R  
   
..NEIGHBORING CITIES
 
 
 
CITY SKY/WX TMP DP RH WIND PRES REMARKS
 
SEATTLE MOSUNNY 51 46 83 NE6 30.32R  
PORTLAND SUNNY 50 46 86 W5 30.28S  
BOISE SUNNY 46 28 49 SE7 30.42R  
GREAT FALLS SUNNY 49 31 49 SW9 30.39R  
CALGARY MOSUNNY 46 30 53 CALM 30.30S  
 
CLICK HERE TO GO TO PREVIOUS BULLETINS.

The Nexlab WA Page
The Nexlab ID Page Main Text Page